EHI
0 0 0 0 0 0 0 0 0 0 0 0 0 0 0 0 0 0 0 0 0 0 0 0 0 0 0 0 0 0 0 0 0 0 0 0 0 0 0 0 0 0 0
0 0 0 0 0 0 0 0 0 0 0 0 0 0 0 0 0 0 0 0 0 0 0 0 0 0 0 0 0 0 0 0 0 0 0 0 0 0 0 0 0 0 0
0 0 0 0 0 0 0 0 0 0 0 0 0 0 0 0 0 0 0 0 0 0 0 0 0 0 0 0 0 0 0 0 0 0 0 0 0 0 0 0 0 0 0
0 0 0 0 0 0 0 0 0 0 0 0 0 0 0 0 0 0 0 0 0 0 0 0 0 0 0 0 0 0 0 0 0 0 0 0 0 0 0 0 0 0 0
0 0 0 0 0 0 0 0 0 0 0 0 0 0 0 0 0 0 0 0 0 0 0 0 0 0 0 0 0 0 0 0 0 0 0 0 0 0 0 0 0 0 0
0 0 0 0 0 0 0 0 0 0 0 0 0 0 0 0 0 0 0 0 0 0 0 0 0 0 0 0 0 0 0 0 0 0 0 0 0 0 0 0 0 0 0
0 0 0 0 0 0 0 0 0 0 0 0 0 0 0 0 0 0 0 0 0 0 0 0 0 0 0 0 0 0 0 0 0 0 0 0 0 0 0 0 0 0 0
0 0 0 0 0 0 0 0 0 0 0 0 0 0 0 0 0 0 0 0 0 0 0 0 0 0 0 0 0 0 0 0 0 0 0 0 0 0 0 0 0 0 0
0 0 0 0 0 0 0 0 0 0 0 0 0 0 0 0 0 0 0 0 0 0 0 0 0 0 0 0 0 0 0 0 0 0 0 0 0 0 0 0 0 0 0
0 0 0 0 0 0 0 0 0 0 0 0 0 0 0 0 0 0 0 0 0 0 0 0 0 0 0 0 0 0 0 0 0 0 0 0 0 0 0 0 0 0 0
0 0 0 0 0 0 0 0 0 0 0 0 0 0 0 0 0 0 0 0 0 0 0 0 0 0 0 0 0 0 0 0 0 0 0 0 0 0 0 0 0 0 0
0 0 0 0 0 0 0 0 0 0 0 0 0 0 0 0 0 0 0 0 0 0 0 0 0 0 0 0 0 0 0 0 0 0 0 0 0 0 0 0 0 0 0
0 0 0 0 0 0 0 0 0 0 0 0 0 0 0 0 0 0 0 0 0 0 0 0 0 0 0 0 0 0 0 0 0 0 0 0 0 0 0 0 0 0 0
0 0 0 0 0 0 0 0 0 0 0 0 0 0 0 0 0 0 0 0 0 0 0 0 0 0 0 0 0 0 0 0 0 0 0 0 0 0 0 0 0 0 0
0 0 0 0 0 0 0 0 0 0 0 0 0 0 0 0 0 0 0 0 0 0 0 0 0 0 0 0 0 0 0 0 0 0 0 0 0 0 0 0 0 0 0
0 0 0 0 0 0 0 0 0 0 0 0 0 0 0 0 0 0 0 0 0 0 0 0 0 0 0 0 0 0 0 0 0 0 0 0 0 0 0 0 0 0 0
0 0 0 0 0 0 0 0 0 0 0 0 0 0 0 0 0 0 0 0 0 0 0 0 0 0 0 0 0 0 0 0 0 0 0 0 0 0 0 0 0 0 0
0 0 0 0 0 0 0 0 0 0 0 0 0 0 0 0 0 0 0 0 0 0 0 0 0 0 0 0 0 0 0 0 0 0 0 0 0 0 0 0 0 0 0
0 0 0 0 0 0 0 0 0 0 0 0 0 0 0 0 0 0 0 0 0 0 0 0 0 0 0 0 0 0 0 0 0 0 0 0 0 0 0 0 0 0 0
0 0 0 0 0 0 0 0 0 0 0 0 0 0 0 0 0 0 0 0 0 0 0 0 0 0 0 0 0 0 0 0 0 0 0 0 0 0 0 0 0 0 0
0 0 0 0 0 0 0 0 0 0 0 0 0 0 0 0 0 0 0 0 0 0 0 0 0 0 0 0 0 0 0 0 0 0 0 0 0 0 0 0 0 0 0
0 0 0 0 0 0 0 0 0 0 0 0 0 0 0 0 0 0 0 0 0 0 0 0 0 0 0 0 0 0 0 0 0 0 0 0 0 0 0 0 0 0 0
0 0 0 0 0 0 0 0 0 0 0 0 0 0 0 0 0 0 0 0 0 0 0 0 0 0 0 0 0 0 0 0 0 0 0 0 0 0 0 0 0 0 0
0 0 0 0 0 0 0 0 0 0 0 0 0 0 0 0 0 0 0 0 0 0 0 0 0 0 0 0 0 0 0 0 0 0 0 0 0 0 0 0 0 0 0
0 0 0 0 0 0 0 0 0 0 0 0 0 0 0 0 0 0 0 0 0 0 0 0 0 0 0 0 0 0 0 0 0 0 0 0 0 0 0 0 0 0 0
0 0 0 0 0 0 0 0 0 0 0 0 0 0 0 0 0 0 0 0 0 0 0 0 0 0 0 0 0 0 0 0 0 0 0 0 0 0 0 0 0 0 0
Wind_Speed
2 2 2 2 2 2 2 3 3 3 3 4 4 3 4 4 3 4 5 5 5 5 5 6 6 5 5 4 4 4 4 4 5 4 3 3 3 3 3 3 3 4 4
2 2 2 2 2 2 3 3 3 3 4 4 4 4 4 4 4 4 5 5 6 7 7 6 7 5 6 5 5 6 5 5 5 6 4 3 4 4 4 3 4 4 3
2 2 2 2 2 3 3 3 3 3 3 4 4 4 5 4 4 5 5 5 6 7 7 7 7 7 7 6 6 6 5 4 5 5 5 3 3 3 3 3 4 3 3
2 2 2 3 3 3 4 4 3 3 3 4 4 4 4 4 5 5 5 5 5 6 7 7 8 8 9 8 7 7 6 5 5 5 5 4 3 3 3 3 3 3 3
2 2 3 3 3 3 3 4 4 3 4 4 4 4 4 4 4 5 5 5 5 5 6 7 8 9 11 9 7 7 7 6 6 5 5 4 4 4 4 4 5 3 3
2 3 3 3 3 4 4 4 4 4 4 3 4 4 5 4 7 8 6 5 5 6 6 6 7 9 11 13 13 12 12 10 9 7 6 7 7 6 5 5 4 3 3
3 3 4 3 4 4 4 4 4 4 4 4 4 4 5 6 9 9 9 5 5 6 6 6 6 7 9 7 10 12 13 15 14 9 9 9 8 8 7 7 6 6 5
3 4 4 4 4 4 4 4 4 4 4 4 5 5 5 6 9 9 10 6 5 6 6 7 7 7 7 8 8 8 8 9 11 8 8 8 7 7 8 8 7 4 2
4 4 4 4 4 4 5 5 5 4 4 4 5 5 5 6 9 9 8 4 4 5 6 6 6 6 9 11 8 8 8 7 9 12 11 9 11 10 7 5 5 4 4
5 5 5 4 4 5 5 5 4 4 5 5 5 4 5 6 9 9 8 4 4 4 5 6 8 8 9 10 7 7 8 7 6 7 7 7 7 8 10 7 6 5 3
5 5 5 5 5 5 5 4 4 5 5 5 5 5 5 6 8 10 10 4 4 4 5 4 5 9 10 10 8 6 9 7 6 6 5 4 4 5 6 5 6 6 5
5 5 5 5 5 4 4 5 5 4 5 5 5 5 4 5 7 8 10 9 7 5 5 4 5 9 10 10 7 7 9 6 3 4 4 4 4 4 4 5 5 4 4
5 5 5 5 5 5 4 5 4 4 3 4 4 5 5 4 5 10 11 10 10 6 5 8 8 9 8 6 7 8 6 4 4 4 5 4 4 4 3 3 3 3 2
5 5 5 5 5 5 4 4 4 4 4 4 4 5 5 4 4 4 5 6 8 7 5 7 9 8 6 6 6 4 3 4 4 5 4 3 3 3 4 3 3 3 2
5 5 5 5 5 5 5 4 5 4 5 5 5 4 5 5 6 9 6 4 4 4 4 3 2 2 3 3 2 3 3 3 4 3 3 4 3 3 3 3 3 3 3
5 5 4 4 4 4 5 6 8 9 12 12 10 8 6 8 11 12 11 10 10 8 4 2 2 2 3 3 3 3 3 3 4 3 4 4 4 4 4 3 3 4 4
5 5 4 5 5 5 5 5 7 8 10 11 11 11 10 11 11 11 11 10 9 7 3 2 2 3 3 3 3 3 3 3 3 3 4 4 4 4 4 4 4 3 4
5 6 5 4 5 5 5 5 5 6 6 6 8 11 12 12 11 11 10 7 4 3 2 2 2 2 2 2 3 3 3 3 3 3 3 3 4 4 4 4 4 4 4
4 4 4 4 4 5 5 5 5 5 5 5 5 6 10 11 10 10 8 3 3 3 2 2 2 2 2 2 2 2 3 3 3 3 3 4 4 4 4 4 4 6 4
4 8 7 4 4 4 4 5 5 5 5 4 5 5 5 6 4 5 4 3 3 3 3 3 3 2 2 2 2 2 2 3 3 3 3 3 3 4 4 5 4 4 4
4 5 8 6 4 4 4 5 5 5 5 5 5 6 9 4 4 4 3 3 3 3 3 3 3 2 2 2 2 2 3 2 3 3 3 3 4 4 4 4 4 4 3
3 3 4 4 4 4 5 4 4 4 5 5 5 6 10 5 4 4 4 4 4 3 3 3 3 2 2 2 2 2 3 3 3 3 3 3 4 4 4 4 4 4 4
3 4 4 4 4 6 6 4 4 5 4 5 5 5 5 4 4 4 4 4 4 4 3 3 3 3 2 2 2 2 3 3 3 3 4 3 4 4 4 4 5 5 4
3 4 4 4 4 4 5 5 5 5 5 5 5 4 4 4 5 5 5 4 4 4 3 3 3 4 4 3 2 2 3 3 3 3 5 5 4 4 4 4 5 5 5
3 3 4 4 4 4 5 5 5 5 5 5 5 5 5 5 5 5 5 4 5 5 5 4 4 4 4 5 4 4 6 7 6 4 4 4 5 5 5 5 5 5 5
3 3 4 4 4 4 5 5 5 5 5 5 5 5 5 5 5 5 5 4 4 5 5 5 5 5 5 5 5 7 9 9 9 8 4 4 5 5 5 4 5 5 5
Wind_Direction
332 314 302 288 284 282 273 270 266 265 269 257 239 238 244 247 245 233 233 222 222 224 218 215 217 211 208 208 208 210 209 198 221 245 241 224 219 231 252 245 247 238 242
324 319 310 305 296 290 285 276 272 265 272 265 248 241 241 245 244 237 242 230 222 226 223 219 221 215 214 211 209 214 213 206 207 229 232 222 223 222 228 239 257 250 238
325 324 317 318 313 302 296 292 283 278 285 272 250 245 245 243 245 243 239 241 234 231 225 223 222 215 217 217 216 217 217 219 209 213 225 221 221 220 219 244 249 243 249
321 317 311 310 306 302 302 299 294 284 279 272 256 251 250 250 252 249 244 242 244 245 234 227 224 219 219 216 217 217 211 213 211 211 217 216 214 209 202 215 241 229 243
322 316 309 309 310 310 311 309 303 295 288 280 264 257 256 249 249 249 245 243 240 246 246 236 232 230 229 225 221 214 207 210 211 212 217 220 216 206 210 211 228 233 245
314 311 314 317 315 313 311 310 309 304 302 295 283 262 257 260 267 264 260 249 245 242 247 244 240 237 236 238 235 227 215 210 208 209 217 220 223 216 211 214 212 214 239
319 318 319 314 312 310 311 314 308 302 301 295 284 275 262 262 267 268 268 261 250 247 246 245 245 242 239 229 234 236 233 229 222 211 212 220 217 206 201 208 209 213 231
320 318 318 316 310 312 312 309 305 298 294 289 285 279 274 269 271 271 272 262 254 252 250 248 243 242 236 229 224 225 227 227 229 225 215 218 217 202 201 205 207 216 232
319 315 313 309 306 309 307 304 299 296 296 290 287 285 284 281 275 275 277 261 257 257 256 257 250 239 242 242 227 219 223 229 236 237 235 230 225 221 207 182 184 194 222
317 314 310 305 300 299 297 297 298 298 296 295 294 290 284 284 281 277 276 256 256 260 262 261 255 250 244 245 228 211 219 222 216 222 230 232 221 212 210 198 188 195 204
316 316 315 313 305 298 297 299 300 300 302 299 296 294 290 287 287 284 277 263 251 254 255 258 257 257 255 251 244 222 227 225 206 205 208 211 207 203 204 206 199 196 200
316 316 314 313 311 310 305 303 303 299 297 297 298 300 294 291 293 289 285 277 269 252 252 255 255 257 258 254 248 237 237 229 193 189 199 207 208 207 206 205 202 207 213
317 315 311 311 311 312 304 301 301 296 293 296 294 294 296 295 294 297 295 289 283 272 255 256 257 256 257 253 250 248 235 210 197 199 207 212 210 203 194 193 189 189 204
314 313 313 312 311 312 307 299 294 293 291 290 289 288 289 291 292 293 292 291 287 284 275 266 261 261 261 254 250 246 227 213 208 209 204 199 186 185 192 188 188 183 193
313 312 311 310 308 307 304 296 296 281 283 284 276 277 283 284 289 295 297 288 280 264 267 262 254 245 244 240 233 228 220 214 218 209 200 192 195 197 198 185 180 179 194
314 315 311 309 308 308 308 307 301 301 302 298 294 291 284 286 296 297 300 298 294 283 277 248 237 236 242 242 235 230 226 218 214 211 203 196 197 197 199 190 185 187 197
301 305 305 308 307 306 307 307 310 312 312 313 312 309 306 304 302 302 302 299 298 293 273 258 248 240 236 233 229 227 227 221 211 208 204 196 192 192 190 191 190 191 200
299 298 303 300 300 300 300 300 301 305 313 315 314 314 317 315 314 315 313 310 308 311 292 277 263 252 244 233 227 226 223 213 210 210 203 195 190 188 190 192 193 195 203
298 297 299 299 301 300 301 302 301 301 301 306 312 313 319 320 320 324 327 328 315 302 295 283 270 256 252 245 238 234 222 215 212 209 204 196 191 188 194 195 195 210 215
296 301 307 304 302 303 305 305 305 303 302 301 304 309 317 320 322 325 328 324 308 299 297 292 284 267 254 245 235 230 234 223 211 211 210 202 196 192 196 198 198 201 209
297 301 306 307 302 302 301 301 302 300 300 302 303 307 316 314 310 309 308 308 304 301 299 294 289 285 274 255 240 232 231 237 227 215 208 202 196 197 198 199 200 201 201
292 292 297 299 300 299 302 303 306 301 299 300 304 307 313 316 308 303 303 302 301 298 295 289 284 281 272 260 246 235 233 233 232 216 209 205 199 199 197 199 200 200 200
288 290 294 297 298 301 307 307 304 301 295 295 298 300 300 301 300 299 298 300 301 300 299 293 287 285 280 268 250 232 232 233 229 217 207 207 207 204 198 201 202 204 209
281 283 288 292 294 294 298 301 300 300 299 295 295 294 296 295 294 294 294 295 296 295 293 287 281 281 279 274 264 251 243 241 232 223 210 207 209 211 206 205 208 210 211
278 282 285 288 290 292 294 295 297 298 298 296 295 295 295 294 293 294 294 294 293 291 291 285 281 276 274 270 267 264 265 260 253 240 215 209 211 213 211 209 209 208 212
284 284 284 287 288 290 293 294 295 296 295 295 294 292 292 292 290 290 291 290 289 288 289 285 281 278 276 273 268 268 270 268 262 257 243 215 211 212 206 207 207 211 212